Flag for Japan Weather past 2 weeks in Sapporo, Japan

Now
41 °F

Quite cool.


Feels Like: 41 °F
Forecast: 35 / 47 °F
Wind: 1 mph from Southwest

Location: Sapporo


UV Index: 5 (Moderate)

Visibility: N/A


Pressure: 29.85 "Hg

Humidity: 40%

Dew point: 19 °F

Location of SapporoLocation

Historic Weather in Sapporo

°F

Sapporo temperature yesterday

Maximum temperature yesterday: 53 °F (at 3:00 PM)
Minimum temperature yesterday: 39 °F (at 5:00 AM)
Average temperature yesterday: 46 °F

Past Weeks' High & Low Weather Summary

 TemperatureHumidityPressure
High61 °F (Apr 14, 2:00 PM)92% (Apr 4, 6:00 AM)30.16 "Hg (Apr 4, 6:00 AM)
Low31 °F (Apr 5, 6:00 AM)15% (Apr 14, 2:00 PM)29.29 "Hg (Apr 4, 6:00 PM)
Average41 °F56%29.82 "Hg
* Reported Apr 1 7:00 PM — Apr 16 7:00 PM, Sapporo, Weather by CustomWeather, © 2014

Note: Actual official high and low records may vary slightly from our data, if they occured in-between our weather recording intervals... More about our weather records

Advertising

Historic Weather Conditions — Data for Previous 24 hours

 ConditionsComfort  
Time TempWeatherWind HumidityBarometerVisibility
7:00 PM
Apr 16
42 °FQuite cool.6 mph40%29.82 "HgN/A
6:00 PM43 °FPassing clouds.13 mph34%29.80 "Hg12 mi
5:00 PM45 °FQuite cool.15 mph26%29.79 "HgN/A
4:00 PM45 °FCool.17 mph28%29.77 "HgN/A
3:00 PM46 °FPartly sunny.20 mph27%29.76 "Hg9 mi
2:00 PM46 °FCool.22 mph31%29.75 "HgN/A
1:00 PM46 °FCool.17 mph33%29.75 "HgN/A
12:00 PM45 °FOvercast.23 mph32%29.75 "Hg9 mi
11:00 AM44 °FQuite cool.21 mph35%29.76 "HgN/A
10:00 AM44 °FQuite cool.12 mph34%29.76 "HgN/A
9:00 AM46 °FPartly sunny.20 mph35%29.75 "Hg9 mi
6:00 AM43 °FPassing clouds.9 mph32%29.75 "Hg12 mi
5:00 AM42 °FQuite cool.9 mph31%29.74 "HgN/A
4:00 AM42 °FQuite cool.10 mph30%29.74 "HgN/A
3:00 AM43 °FClear.13 mph26%29.74 "Hg9 mi
2:00 AM42 °FQuite cool.7 mph30%29.75 "HgN/A
1:00 AM44 °FQuite cool.10 mph28%29.75 "HgN/A
12:00 AM44 °FQuite cool.16 mph30%29.75 "HgN/A
11:00 PM
Apr 15
45 °FCool.14 mph37%29.74 "HgN/A
10:00 PM48 °FCool.14 mph27%29.72 "HgN/A
9:00 PM49 °FPassing clouds.15 mph29%29.71 "Hg9 mi
Weather by CustomWeather, © 2014

See weather overview